This demonstration page uses our WeatherBlox Daily Observations layout. Learn more.

Left ArrowRight Arrow

39.08367, -84.50855

Hourly Observations for May 26, 2020

Temp ( °F °C ) Dew Point ( °F °C ) Humidity (%) Winds ( mph kmh ) Pressure ( in mb ) Visibility ( mi km ) Precip ( " mm )
12:53 am 00:53 Clear 67 19.4 67 19.4 100 100 Calm 30.04 1017 10 16.0934 0 0
1:53 am 01:53 Clear 66 18.9 66 18.9 100 100 Calm 30.03 1017 10 16.0934 0 0
2:47 am 02:47 Clear with Mist and Fog 66 19 66 19 100 100 S 3 6 30.03 1017 1.75 2.816345 0 0
2:53 am 02:53 Clear with Mist and Fog 66 18.9 66 18.9 100 100 SSW 3 6 30.03 1017 1.75 2.816345 0 0
2:55 am 02:55 Clear with Mist and Fog 66 18.9 66 18.9 100 100 SSW 3 6 30.03 1017 3 4.82802 0 0
3:19 am 03:19 Mostly Clear with Mist and Fog 66 18.9 66 18.9 100 100 Calm 30.03 1017 2 3.21868 0 0
3:21 am 03:21 Mostly Cloudy with Mist and Fog 66 18.9 66 18.9 100 100 Calm 30.03 1017 1 1.60934 0 0
3:28 am 03:28 Mostly Cloudy with Mist and Fog 66 18.9 65 18.3 96 96 Calm 30.03 1017 0.75 1.207005 0 0
3:32 am 03:32 Mostly Cloudy with Mist and Fog 65 18.3 65 18.3 100 100 Calm 30.03 1017 2 3.21868 0 0
3:42 am 03:42 Mostly Cloudy with Mist and Fog 66 18.9 66 18.9 100 100 Calm 30.03 1017 0.75 1.207005 0 0
3:53 am 03:53 Mostly Cloudy with Fog 65 18.3 65 18.3 100 100 WSW 3 6 30.03 1017 0.25 0.402335 0 0
4:53 am 04:53 Mostly Cloudy with Fog 65 18.3 65 18.3 100 100 Calm 30.04 1017 0.25 0.402335 0 0
5:53 am 05:53 Mostly Cloudy with Fog 64 17.8 64 17.8 100 100 Calm 30.05 1018 0.25 0.402335 0 0
6:53 am 06:53 Mostly Cloudy with Fog 64 17.8 64 17.8 100 100 Calm 30.07 1018 0.25 0.402335 0 0
7:53 am 07:53 Mostly Sunny 66 18.9 66 18.9 100 100 Calm 30.08 1019 8 12.87472 0 0
8:53 am 08:53 Sunny 68 20 68 20 100 100 Calm 30.09 1019 10 16.0934 0 0
9:53 am 09:53 Sunny 70 21 68 20 94 94 SW 3 6 30.09 1019 10 16.0934 0 0
10:53 am 10:53 Sunny 76 24.4 69 20.6 79 79 SSW 3 6 30.08 1019 10 16.0934 0 0
11:53 am 11:53 Sunny 81 27 70 21 70 70 SSW 3 6 30.07 1018 10 16.0934 0 0
12:53 pm 12:53 Sunny 83 28.3 66 18.9 57 57 Calm 30.05 1018 10 16.0934 0 0
1:53 pm 13:53 Partly Cloudy 84 29 66 19 55 55 SSW 7 11 30.02 1017 10 16.0934 0 0
2:53 pm 14:53 Mostly Sunny 87 30.6 69 20.6 55 55 VRB 6 9 30.01 1016 10 16.0934 0 0
3:53 pm 15:53 Mostly Cloudy 87 30.6 67 19.4 51 51 NE 3 6 29.98 1015 10 16.0934 0 0
5:53 pm 17:53 Partly Cloudy 85 29.4 67 19.4 55 55 E 3 6 29.96 1015 10 16.0934 0 0
6:53 pm 18:53 Partly Cloudy 84 28.9 67 19.4 57 57 SSE 6 9 29.95 1014 10 16.0934 0 0
7:53 pm 19:53 Partly Cloudy 79 26.1 69 20.6 72 72 SE 5 7 29.96 1015 10 16.0934 0 0
8:53 pm 20:53 Partly Cloudy 76 24.4 67 19.4 74 74 S 3 6 29.98 1015 10 16.0934 0 0
9:53 pm 21:53 Clear 73 22.8 69 20.6 87 87 VRB 3 6 29.98 1015 10 16.0934 0 0
10:53 pm 22:53 Clear 71 21.7 68 20 90 90 Calm 30 1016 10 16.0934 0 0
11:53 pm 23:53 Clear 70 21.1 68 20 93 93 Calm 29.99 1016 10 16.0934 0 0

Powered by AerisWeather